Time,TemperatureF,DewpointF,PressureIn,WindDirection,WindDirectionDegrees,WindSpeedMPH,WindSpeedGustMPH,Humidity,HourlyPrecipIn,Conditions,Clouds,dailyrainin,SoftwareType,DateUTC
2013-05-24 00:03:00,63.0,62.0,29.70,South,171,6.0,12.0,97,0.00,,,0.07,,2013-05-24 04:03:00,
2013-05-24 00:12:00,63.0,62.0,29.70,South,171,6.0,12.0,97,0.00,,,0.07,,2013-05-24 04:12:00,
2013-05-24 00:23:00,63.0,62.0,29.70,SE,143,6.0,12.0,97,0.00,,,0.07,,2013-05-24 04:23:00,
2013-05-24 00:33:00,63.0,62.0,29.68,SE,140,4.0,15.0,97,0.00,,,0.07,,2013-05-24 04:33:00,
2013-05-24 00:42:00,63.0,62.0,29.68,SE,140,4.0,15.0,97,0.00,,,0.07,,2013-05-24 04:42:00,
2013-05-24 00:53:00,62.0,61.0,29.68,SSW,202,5.0,13.0,97,0.00,,,0.07,,2013-05-24 04:53:00,
2013-05-24 01:02:00,62.0,61.0,29.67,SSE,154,2.0,8.0,97,0.00,,,0.07,,2013-05-24 05:02:00,
2013-05-24 01:12:00,62.0,61.0,29.67,SSE,154,2.0,8.0,97,0.00,,,0.07,,2013-05-24 05:12:00,
2013-05-24 01:22:00,62.0,61.0,29.67,South,188,2.0,6.0,97,0.00,,,0.07,,2013-05-24 05:22:00,
2013-05-24 01:32:00,62.0,61.0,29.65,South,186,0.0,1.0,97,0.01,,,0.08,,2013-05-24 05:32:00,
2013-05-24 01:42:00,62.0,61.0,29.65,South,186,0.0,1.0,97,0.01,,,0.08,,2013-05-24 05:42:00,
2013-05-24 01:52:00,63.0,62.0,29.65,South,186,0.0,0.0,97,0.01,,,0.08,,2013-05-24 05:52:00,
2013-05-24 02:02:00,65.0,64.0,29.65,SW,221,4.0,10.0,98,0.01,,,0.08,,2013-05-24 06:02:00,
2013-05-24 02:12:00,65.0,64.0,29.65,SW,221,4.0,10.0,98,0.01,,,0.08,,2013-05-24 06:12:00,
2013-05-24 02:21:00,65.0,64.0,29.65,WSW,245,2.0,8.0,98,0.01,,,0.08,,2013-05-24 06:21:00,
2013-05-24 02:32:00,64.0,63.0,29.65,WNW,290,1.0,9.0,97,0.00,,,0.08,,2013-05-24 06:32:00,
2013-05-24 02:42:00,64.0,63.0,29.65,WNW,290,1.0,9.0,97,0.00,,,0.08,,2013-05-24 06:42:00,
2013-05-24 02:52:00,64.0,63.0,29.65,WNW,289,0.0,4.0,97,0.00,,,0.08,,2013-05-24 06:52:00,
2013-05-24 03:02:00,64.0,63.0,29.63,WNW,289,0.0,0.0,97,0.00,,,0.08,,2013-05-24 07:02:00,
2013-05-24 03:11:00,64.0,63.0,29.63,WNW,289,0.0,0.0,97,0.00,,,0.08,,2013-05-24 07:11:00,
2013-05-24 03:22:00,64.0,63.0,29.63,WNW,289,0.0,0.0,97,0.00,,,0.08,,2013-05-24 07:22:00,
2013-05-24 03:32:00,64.0,63.0,29.62,WNW,289,0.0,0.0,97,0.00,,,0.07,,2013-05-24 07:32:00,
2013-05-24 03:42:00,64.0,63.0,29.62,WNW,289,0.0,0.0,97,0.00,,,0.07,,2013-05-24 07:42:00,
2013-05-24 03:52:00,64.0,63.0,29.62,West,273,1.0,3.0,97,0.00,,,0.07,,2013-05-24 07:52:00,
2013-05-24 04:02:00,63.0,62.0,29.64,SSW,201,1.0,5.0,97,0.00,,,0.07,,2013-05-24 08:02:00,
2013-05-24 04:11:00,63.0,62.0,29.64,SSW,201,1.0,5.0,97,0.00,,,0.07,,2013-05-24 08:11:00,
2013-05-24 04:22:00,63.0,62.0,29.64,SSW,194,0.0,4.0,97,0.01,,,0.08,,2013-05-24 08:22:00,
2013-05-24 04:33:00,63.0,62.0,29.63,SSW,195,0.0,0.0,97,0.01,,,0.08,,2013-05-24 08:33:00,
2013-05-24 04:42:00,63.0,62.0,29.63,SSW,195,0.0,0.0,97,0.01,,,0.08,,2013-05-24 08:42:00,
2013-05-24 04:52:00,63.0,62.0,29.63,SSW,195,0.0,0.0,97,0.01,,,0.08,,2013-05-24 08:52:00,
2013-05-24 05:02:00,63.0,62.0,29.64,SSW,196,1.0,4.0,97,0.01,,,0.08,,2013-05-24 09:02:00,
2013-05-24 05:11:00,63.0,62.0,29.64,SSW,196,1.0,4.0,97,0.01,,,0.08,,2013-05-24 09:11:00,
2013-05-24 05:22:00,63.0,62.0,29.64,SSW,195,0.0,3.0,97,0.02,,,0.10,,2013-05-24 09:22:00,
2013-05-24 05:33:00,63.0,62.0,29.63,SSW,192,0.0,0.0,97,0.04,,,0.11,,2013-05-24 09:33:00,
2013-05-24 05:42:00,63.0,62.0,29.63,SSW,192,0.0,0.0,97,0.04,,,0.11,,2013-05-24 09:42:00,
2013-05-24 05:52:00,63.0,62.0,29.63,SSW,192,0.0,1.0,97,0.04,,,0.11,,2013-05-24 09:52:00,
2013-05-24 06:03:00,63.0,62.0,29.64,SSW,192,0.0,0.0,98,0.04,,,0.11,,2013-05-24 10:03:00,
2013-05-24 06:12:00,63.0,62.0,29.64,SSW,192,0.0,0.0,98,0.04,,,0.11,,2013-05-24 10:12:00,
2013-05-24 06:22:00,63.0,62.0,29.64,SSW,192,0.0,0.0,98,0.02,,,0.11,,2013-05-24 10:22:00,
2013-05-24 06:33:00,63.0,62.0,29.64,SSW,193,1.0,3.0,98,0.00,,,0.11,,2013-05-24 10:33:00,
2013-05-24 06:42:00,63.0,62.0,29.64,SSW,193,1.0,3.0,98,0.00,,,0.11,,2013-05-24 10:42:00,
2013-05-24 06:52:00,63.0,62.0,29.64,SSW,193,0.0,2.0,98,0.00,,,0.11,,2013-05-24 10:52:00,
2013-05-24 07:02:00,63.0,62.0,29.65,SSW,194,1.0,4.0,98,0.00,,,0.11,,2013-05-24 11:02:00,
2013-05-24 07:12:00,63.0,62.0,29.65,SSW,194,1.0,4.0,98,0.00,,,0.11,,2013-05-24 11:12:00,
2013-05-24 07:22:00,63.0,62.0,29.65,SSW,194,1.0,4.0,98,0.00,,,0.11,,2013-05-24 11:22:00,
2013-05-24 07:32:00,63.0,62.0,29.66,SSW,194,0.0,4.0,98,0.00,,,0.11,,2013-05-24 11:32:00,
2013-05-24 07:42:00,63.0,62.0,29.66,SSW,194,0.0,4.0,98,0.00,,,0.11,,2013-05-24 11:42:00,
2013-05-24 07:52:00,63.0,62.0,29.66,SSW,195,1.0,4.0,98,0.00,,,0.11,,2013-05-24 11:52:00,
2013-05-24 08:02:00,64.0,63.0,29.67,SSW,200,0.0,4.0,97,0.00,,,0.11,,2013-05-24 12:02:00,
2013-05-24 08:11:00,64.0,63.0,29.67,SSW,200,0.0,4.0,97,0.00,,,0.11,,2013-05-24 12:11:00,
2013-05-24 08:22:00,64.0,63.0,29.67,SSW,200,1.0,5.0,97,0.00,,,0.11,,2013-05-24 12:22:00,
2013-05-24 08:32:00,64.0,63.0,29.67,WNW,286,1.0,6.0,97,0.00,,,0.11,,2013-05-24 12:32:00,
2013-05-24 08:42:00,64.0,63.0,29.67,WNW,286,1.0,6.0,97,0.00,,,0.11,,2013-05-24 12:42:00,
2013-05-24 08:52:00,65.0,64.0,29.67,WSW,246,2.0,6.0,97,0.00,,,0.11,,2013-05-24 12:52:00,
2013-05-24 09:02:00,65.0,64.0,29.67,West,272,3.0,7.0,96,0.00,,,0.11,,2013-05-24 13:02:00,
2013-05-24 09:11:00,65.0,64.0,29.67,West,272,3.0,7.0,96,0.00,,,0.11,,2013-05-24 13:11:00,
2013-05-24 09:22:00,66.0,65.0,29.67,WNW,282,1.0,6.0,96,0.00,,,0.11,,2013-05-24 13:22:00,
2013-05-24 09:32:00,66.0,64.0,29.67,WNW,284,4.0,8.0,94,0.01,,,0.12,,2013-05-24 13:32:00,
2013-05-24 09:42:00,66.0,64.0,29.67,WNW,284,4.0,8.0,94,0.01,,,0.12,,2013-05-24 13:42:00,
2013-05-24 09:52:00,66.0,64.0,29.67,WNW,291,6.0,11.0,92,0.01,,,0.12,,2013-05-24 13:52:00,
2013-05-24 10:02:00,66.0,63.0,29.67,NW,310,4.0,9.0,89,0.01,,,0.12,,2013-05-24 14:02:00,
2013-05-24 10:11:00,66.0,63.0,29.67,NW,310,4.0,9.0,89,0.01,,,0.12,,2013-05-24 14:11:00,
2013-05-24 10:21:00,67.0,63.0,29.67,West,274,1.0,10.0,88,0.01,,,0.12,,2013-05-24 14:21:00,
2013-05-24 10:32:00,67.0,63.0,29.67,WNW,283,4.0,9.0,86,0.00,,,0.12,,2013-05-24 14:32:00,
2013-05-24 10:42:00,67.0,63.0,29.67,WNW,283,4.0,9.0,86,0.00,,,0.12,,2013-05-24 14:42:00,
2013-05-24 10:52:00,67.0,62.0,29.67,WNW,300,6.0,9.0,83,0.00,,,0.12,,2013-05-24 14:52:00,
2013-05-24 11:02:00,68.0,62.0,29.67,WNW,293,3.0,8.0,82,0.00,,,0.12,,2013-05-24 15:02:00,
2013-05-24 11:11:00,68.0,62.0,29.67,WNW,293,3.0,8.0,82,0.00,,,0.12,,2013-05-24 15:11:00,
2013-05-24 11:21:00,68.0,62.0,29.67,NW,312,3.0,8.0,82,0.00,,,0.12,,2013-05-24 15:21:00,
2013-05-24 11:33:00,67.0,62.0,29.68,West,280,3.0,7.0,83,0.00,,,0.12,,2013-05-24 15:33:00,
2013-05-24 11:43:00,67.0,62.0,29.68,West,280,3.0,7.0,83,0.00,,,0.12,,2013-05-24 15:43:00,
2013-05-24 11:52:00,62.0,55.0,29.68,North,360,8.0,18.0,77,0.00,,,0.12,,2013-05-24 15:52:00,
2013-05-24 12:03:00,60.0,54.0,29.70,NW,304,8.0,15.0,82,0.00,,,0.12,,2013-05-24 16:03:00,
2013-05-24 12:12:00,60.0,54.0,29.70,NW,304,8.0,15.0,82,0.00,,,0.12,,2013-05-24 16:12:00,
2013-05-24 12:22:00,58.0,53.0,29.70,WNW,292,6.0,16.0,82,0.00,,,0.12,,2013-05-24 16:22:00,
2013-05-24 12:32:00,57.0,50.0,29.71,WNW,303,6.0,14.0,77,0.00,,,0.12,,2013-05-24 16:32:00,
2013-05-24 12:42:00,57.0,50.0,29.71,WNW,303,6.0,14.0,77,0.00,,,0.12,,2013-05-24 16:42:00,
2013-05-24 12:52:00,57.0,51.0,29.71,NNW,331,8.0,20.0,80,0.00,,,0.12,,2013-05-24 16:52:00,
2013-05-24 13:02:00,56.0,51.0,29.72,NNW,329,6.0,17.0,82,0.00,,,0.12,,2013-05-24 17:02:00,
2013-05-24 13:12:00,56.0,51.0,29.72,NNW,329,6.0,17.0,82,0.00,,,0.12,,2013-05-24 17:12:00,
2013-05-24 13:22:00,55.0,49.0,29.72,NNW,331,8.0,21.0,81,0.00,,,0.12,,2013-05-24 17:22:00,
2013-05-24 13:32:00,55.0,48.0,29.73,NW,310,9.0,18.0,78,0.00,,,0.12,,2013-05-24 17:32:00,
2013-05-24 13:42:00,55.0,48.0,29.73,NW,310,9.0,18.0,78,0.00,,,0.12,,2013-05-24 17:42:00,
2013-05-24 13:52:00,54.0,48.0,29.73,WNW,288,7.0,14.0,79,0.00,,,0.12,,2013-05-24 17:52:00,
2013-05-24 14:01:00,54.0,47.0,29.74,North,351,7.0,19.0,78,0.00,,,0.12,,2013-05-24 18:01:00,
2013-05-24 14:12:00,54.0,47.0,29.74,North,351,7.0,19.0,78,0.00,,,0.12,,2013-05-24 18:12:00,
2013-05-24 14:22:00,54.0,48.0,29.74,NNW,336,8.0,19.0,79,0.00,,,0.12,,2013-05-24 18:22:00,
2013-05-24 14:32:00,52.0,48.0,29.75,NW,307,9.0,19.0,85,0.00,,,0.07,,2013-05-24 18:32:00,
2013-05-24 14:42:00,52.0,48.0,29.75,NW,307,9.0,19.0,85,0.00,,,0.07,,2013-05-24 18:42:00,
2013-05-24 14:52:00,52.0,48.0,29.75,West,273,11.0,18.0,85,0.00,,,0.07,,2013-05-24 18:52:00,
2013-05-24 15:01:00,51.0,47.0,29.75,NW,306,8.0,24.0,87,0.00,,,0.07,,2013-05-24 19:01:00,
2013-05-24 15:11:00,51.0,47.0,29.75,NW,306,8.0,24.0,87,0.00,,,0.07,,2013-05-24 19:11:00,
2013-05-24 15:21:00,51.0,47.0,29.75,NW,313,8.0,20.0,87,0.00,,,0.07,,2013-05-24 19:21:00,
2013-05-24 15:32:00,51.0,48.0,29.75,WNW,285,7.0,14.0,89,0.00,,,0.07,,2013-05-24 19:32:00,
2013-05-24 15:42:00,51.0,48.0,29.75,WNW,285,7.0,14.0,89,0.00,,,0.07,,2013-05-24 19:42:00,
2013-05-24 15:52:00,51.0,48.0,29.75,NW,309,5.0,14.0,89,0.00,,,0.07,,2013-05-24 19:52:00,
2013-05-24 16:02:00,50.0,47.0,29.77,NNW,332,7.0,15.0,91,0.04,,,0.11,,2013-05-24 20:02:00,
2013-05-24 16:12:00,50.0,47.0,29.77,NNW,332,7.0,15.0,91,0.04,,,0.11,,2013-05-24 20:12:00,
2013-05-24 16:22:00,50.0,48.0,29.77,NW,312,7.0,14.0,92,0.04,,,0.11,,2013-05-24 20:22:00,
2013-05-24 16:32:00,50.0,48.0,29.76,NW,324,9.0,16.0,92,0.05,,,0.12,,2013-05-24 20:32:00,
2013-05-24 16:42:00,50.0,48.0,29.76,NW,324,9.0,16.0,92,0.05,,,0.12,,2013-05-24 20:42:00,
2013-05-24 16:52:00,50.0,48.0,29.76,NW,304,7.0,14.0,92,0.05,,,0.12,,2013-05-24 20:52:00,
2013-05-24 17:01:00,50.0,48.0,29.78,WNW,297,7.0,16.0,92,0.01,,,0.12,,2013-05-24 21:01:00,
2013-05-24 17:11:00,50.0,48.0,29.78,WNW,297,7.0,16.0,92,0.01,,,0.12,,2013-05-24 21:11:00,
2013-05-24 17:21:00,50.0,48.0,29.78,North,351,8.0,16.0,92,0.02,,,0.13,,2013-05-24 21:21:00,
2013-05-24 17:33:00,50.0,47.0,29.78,West,281,6.0,14.0,91,0.02,,,0.14,,2013-05-24 21:33:00,
2013-05-24 17:42:00,50.0,47.0,29.78,West,281,6.0,14.0,91,0.02,,,0.14,,2013-05-24 21:42:00,
2013-05-24 17:53:00,50.0,47.0,29.78,NW,315,8.0,18.0,91,0.02,,,0.14,,2013-05-24 21:53:00,
2013-05-24 18:03:00,49.0,46.0,29.80,NNW,340,9.0,19.0,89,0.02,,,0.14,,2013-05-24 22:03:00,
2013-05-24 18:12:00,49.0,46.0,29.80,NNW,340,9.0,19.0,89,0.02,,,0.14,,2013-05-24 22:12:00,
2013-05-24 18:22:00,49.0,46.0,29.80,NW,321,7.0,17.0,89,0.01,,,0.14,,2013-05-24 22:22:00,
2013-05-24 18:33:00,49.0,46.0,29.80,West,281,4.0,13.0,91,0.02,,,0.16,,2013-05-24 22:33:00,
2013-05-24 18:42:00,49.0,46.0,29.80,West,281,4.0,13.0,91,0.02,,,0.16,,2013-05-24 22:42:00,
2013-05-24 18:52:00,49.0,47.0,29.80,NW,313,6.0,12.0,92,0.02,,,0.16,,2013-05-24 22:52:00,
2013-05-24 19:02:00,49.0,46.0,29.81,NW,315,6.0,15.0,89,0.02,,,0.16,,2013-05-24 23:02:00,
2013-05-24 19:11:00,49.0,46.0,29.81,NW,315,6.0,15.0,89,0.02,,,0.16,,2013-05-24 23:11:00,
2013-05-24 19:22:00,49.0,46.0,29.81,NW,315,6.0,15.0,89,0.02,,,0.16,,2013-05-24 23:22:00,
2013-05-24 19:32:00,49.0,45.0,29.82,NW,317,7.0,20.0,86,0.00,,,0.16,,2013-05-24 23:32:00,
2013-05-24 19:42:00,49.0,45.0,29.82,NW,317,7.0,20.0,86,0.00,,,0.16,,2013-05-24 23:42:00,
2013-05-24 19:52:00,48.0,44.0,29.82,NNW,329,8.0,17.0,85,0.00,,,0.16,,2013-05-24 23:52:00,
2013-05-24 20:01:00,48.0,43.0,29.83,NNW,340,8.0,18.0,84,0.00,,,0.16,,2013-05-25 00:01:00,
2013-05-24 20:12:00,48.0,43.0,29.83,NNW,340,8.0,18.0,84,0.00,,,0.16,,2013-05-25 00:12:00,
2013-05-24 20:22:00,48.0,43.0,29.83,NW,314,6.0,20.0,82,0.00,,,0.16,,2013-05-25 00:22:00,
2013-05-24 20:32:00,48.0,42.0,29.84,WNW,285,6.0,20.0,79,0.00,,,0.16,,2013-05-25 00:32:00,
2013-05-24 20:42:00,48.0,42.0,29.84,WNW,285,6.0,20.0,79,0.00,,,0.16,,2013-05-25 00:42:00,
2013-05-24 20:52:00,48.0,42.0,29.84,West,260,7.0,14.0,79,0.00,,,0.16,,2013-05-25 00:52:00,
2013-05-24 21:01:00,48.0,41.0,29.85,West,267,7.0,17.0,77,0.00,,,0.16,,2013-05-25 01:01:00,
2013-05-24 21:11:00,48.0,41.0,29.85,West,267,7.0,17.0,77,0.00,,,0.16,,2013-05-25 01:11:00,
2013-05-24 21:22:00,48.0,41.0,29.85,West,267,7.0,17.0,77,0.00,,,0.16,,2013-05-25 01:22:00,
2013-05-24 21:32:00,49.0,41.0,29.85,West,279,7.0,14.0,75,0.00,,,0.16,,2013-05-25 01:32:00,
2013-05-24 21:42:00,49.0,41.0,29.85,West,279,7.0,14.0,75,0.00,,,0.16,,2013-05-25 01:42:00,
2013-05-24 21:52:00,48.0,41.0,29.85,NNW,346,7.0,15.0,77,0.00,,,0.16,,2013-05-25 01:52:00,
2013-05-24 22:02:00,47.0,41.0,29.87,NW,315,7.0,18.0,81,0.00,,,0.16,,2013-05-25 02:02:00,
2013-05-24 22:12:00,47.0,41.0,29.87,NW,315,7.0,18.0,81,0.00,,,0.16,,2013-05-25 02:12:00,
2013-05-24 22:21:00,46.0,42.0,29.87,NW,315,5.0,13.0,86,0.00,,,0.16,,2013-05-25 02:21:00,
2013-05-24 22:32:00,46.0,42.0,29.86,WNW,290,7.0,12.0,86,0.01,,,0.17,,2013-05-25 02:32:00,
2013-05-24 22:42:00,46.0,42.0,29.86,WNW,290,7.0,12.0,86,0.01,,,0.17,,2013-05-25 02:42:00,
2013-05-24 22:51:00,46.0,43.0,29.86,NW,311,4.0,12.0,89,0.01,,,0.17,,2013-05-25 02:51:00,
2013-05-24 23:02:00,46.0,43.0,29.87,WNW,294,7.0,12.0,89,0.01,,,0.17,,2013-05-25 03:02:00,
2013-05-24 23:11:00,46.0,43.0,29.87,WNW,294,7.0,12.0,89,0.01,,,0.17,,2013-05-25 03:11:00,
2013-05-24 23:22:00,46.0,43.0,29.87,WNW,289,6.0,12.0,89,0.00,,,0.17,,2013-05-25 03:22:00,
2013-05-24 23:33:00,46.0,44.0,29.88,WNW,288,5.0,12.0,91,0.00,,,0.17,,2013-05-25 03:33:00,
2013-05-24 23:43:00,46.0,44.0,29.88,WNW,288,5.0,12.0,91,0.00,,,0.17,,2013-05-25 03:43:00,
2013-05-24 23:53:00,46.0,44.0,29.88,NW,325,2.0,11.0,91,0.00,,,0.17,,2013-05-25 03:53:00,